Shelton, WA

12:12 AM PST on November 15, 2019 (GMT -0800)
Sanderson

Weather History for KSHN - October, 2019

Change the Weather History Date:

Sunday, October 20, 2019

  Actual Average Record
Temperature  
Mean Temperature 48 °F -  
Max Temperature 54 °F 58 °F 72 °F (1998)
Min Temperature 42 °F 41 °F 25 °F (1949)
Degree Days  
Heating Degree Days 17    
Moisture  
Dew Point 47 °F    
Average Humidity 93    
Maximum Humidity 97    
Minimum Humidity 86    
Precipitation  
Precipitation 0.43 in - - ()
Sea Level Pressure  
Sea Level Pressure 29.95 in    
Wind  
Wind Speed 3 mph (WSW)    
Max Wind Speed 17 mph    
Max Gust Speed -    
Visibility 5 miles    
Events Rain    
Averages and records for this station are not official NWS values.
T = Trace of Precipitation, MM = Missing Value Source: NWS Daily Summary

Daily Weather History Graph

Daily Weather History Graph

Search for Another Location

Airport or City:

Astronomy

Oct. 20, 2019 Rise Set
Actual Time 7:37 AM PDT 6:16 PM PDT
Civil Twilight 7:06 AM PDT 6:47 PM PDT
Nautical Twilight 6:31 AM PDT 7:22 PM PDT
Astronomical Twilight 5:55 AM PDT 7:57 PM PDT
Moon 11:14 PM PDT (10/20) 2:27 PM PDT (10/20)
Length of Visible Light 11h 40m
Length of Day
10h 38m
Waning Gibbous, 58% of the Moon is Illuminated
Oct 20
Waning Gibbous
Oct 21
Last Quarter
Oct 27
New
Nov 4
First Quarter
Nov 12
Full

Hourly Weather History & Observations

Time (PDT) Temp. Windchill Dew Point Humidity Pressure Visibility Wind Dir Wind Speed Gust Speed Precip Events Conditions
12:53 AM 43.0 °F 41.3 °F 39.9 °F 89% 30.04 in 10.0 mi WSW 3.5 mph - N/A   Clear
1:53 AM 42.1 °F 40.2 °F 41.0 °F 96% 30.05 in 10.0 mi SW 3.5 mph - N/A   Clear
2:53 AM 43.0 °F 41.3 °F 41.0 °F 93% 30.05 in 10.0 mi WSW 3.5 mph - N/A   Clear
3:53 AM 44.1 °F - 43.0 °F 96% 30.04 in 10.0 mi Calm Calm - N/A   Partly Cloudy
4:53 AM 44.1 °F - 43.0 °F 96% 30.04 in 9.0 mi Calm Calm - N/A   Mostly Cloudy
5:53 AM 43.0 °F 41.3 °F 42.1 °F 97% 30.04 in 8.0 mi SE 3.5 mph - N/A   Overcast
6:53 AM 45.0 °F - 43.0 °F 93% 30.02 in 9.0 mi Calm Calm - 0.01 in Rain Light Rain
7:53 AM 45.0 °F - 44.1 °F 97% 30.01 in 4.0 mi Calm Calm - 0.01 in Rain Light Rain
8:07 AM 44.1 °F 42.5 °F 43.0 °F 96% 30.00 in 2.5 mi West 3.5 mph - 0.02 in Rain Light Rain
8:16 AM 45.0 °F - 43.0 °F 93% 30.00 in 5.0 mi Calm Calm - 0.03 in Rain Light Rain
8:41 AM 45.0 °F - 44.1 °F 97% 29.99 in 7.0 mi Calm Calm - 0.03 in   Overcast
8:53 AM 45.0 °F - 44.1 °F 97% 30.01 in 7.0 mi Calm Calm - 0.03 in   Overcast
9:53 AM 46.9 °F - 45.0 °F 93% 30.00 in 5.0 mi Calm Calm - 0.01 in Rain Light Rain
10:53 AM 48.0 °F - 46.0 °F 93% 29.98 in 6.0 mi Calm Calm - 0.02 in Rain Light Rain
11:15 AM 48.9 °F - 46.9 °F 93% 29.96 in 3.0 mi North 3.5 mph - 0.02 in Rain Light Rain
11:19 AM 48.9 °F - 46.9 °F 93% 29.95 in 2.5 mi Calm Calm - 0.02 in Rain Light Rain
11:22 AM 48.9 °F - 46.9 °F 93% 29.95 in 2.0 mi NE 3.5 mph - 0.02 in Rain Light Rain
11:31 AM 48.9 °F - 46.9 °F 93% 29.95 in 1.2 mi Calm Calm - 0.04 in Rain Light Rain
11:38 AM 48.9 °F - 48.0 °F 97% 29.95 in 1.2 mi Calm Calm - 0.05 in Rain Light Rain
11:53 AM 50.0 °F - 48.0 °F 93% 29.95 in 1.5 mi Calm Calm - 0.06 in Rain Light Rain
12:36 PM 50.0 °F - 48.9 °F 96% 29.92 in 1.0 mi Calm Calm - 0.05 in Rain Light Rain
12:48 PM 50.0 °F - 48.2 °F 94% 29.92 in 1.0 mi Calm Calm - 0.07 in Rain Light Rain
12:53 PM 50.0 °F - 48.0 °F 93% 29.92 in 1.0 mi Calm Calm - 0.07 in Rain Light Rain
1:06 PM 50.0 °F - 48.9 °F 96% 29.91 in 1.0 mi Calm Calm - 0.03 in Rain Light Rain
1:18 PM 50.0 °F - 48.9 °F 96% 29.90 in 1.2 mi Calm Calm - 0.05 in Rain Light Rain
1:27 PM 50.0 °F - 48.0 °F 93% 29.89 in 3.0 mi Calm Calm - 0.05 in Rain Light Rain
1:37 PM 50.0 °F - 48.0 °F 93% 29.88 in 1.8 mi Calm Calm - 0.05 in Rain Light Rain
1:53 PM 50.0 °F - 48.0 °F 93% 29.89 in 1.8 mi NW 3.5 mph - 0.07 in Rain Light Rain
2:00 PM 50.0 °F - 48.9 °F 96% 29.88 in 1.5 mi Calm Calm - 0.02 in Rain Light Rain
2:23 PM 50.0 °F - 48.0 °F 93% 29.87 in 1.2 mi Calm Calm - 0.05 in Rain Light Rain
2:53 PM 50.0 °F - 48.0 °F 93% 29.89 in 1.0 mi NW 4.6 mph - 0.09 in Rain Light Rain
2:55 PM 50.0 °F - 48.0 °F 93% 29.88 in 1.0 mi NW 4.6 mph - 0.00 in Rain Light Rain
3:03 PM 50.0 °F - 48.9 °F 96% 29.87 in 1.5 mi Calm Calm - 0.02 in Rain Light Rain
3:21 PM 50.0 °F - 48.9 °F 96% 29.88 in 1.5 mi Calm Calm - 0.04 in Rain Light Rain
3:30 PM 50.0 °F - 48.9 °F 96% 29.88 in 1.8 mi West 3.5 mph - 0.04 in Rain Light Rain
3:44 PM 50.0 °F - 48.9 °F 96% 29.88 in 2.0 mi SW 5.8 mph - 0.06 in Rain Light Rain
3:51 PM 51.8 °F - 48.2 °F 88% 29.88 in 3.0 mi SW 4.6 mph - 0.06 in   Overcast
3:53 PM 51.1 °F - 48.9 °F 92% 29.89 in 3.0 mi SW 5.8 mph - 0.06 in   Overcast
4:02 PM 51.1 °F - 50.0 °F 96% 29.88 in 3.0 mi SW 6.9 mph - N/A   Overcast
4:19 PM 53.1 °F - 52.0 °F 96% 29.87 in 10.0 mi SSW 10.4 mph - N/A   Overcast
4:42 PM 54.0 °F - 51.1 °F 90% 29.88 in 10.0 mi SW 13.8 mph - N/A   Scattered Clouds
4:53 PM 54.0 °F - 51.1 °F 90% 29.89 in 10.0 mi SW 12.7 mph - N/A   Partly Cloudy
5:53 PM 52.0 °F - 48.0 °F 86% 29.93 in 10.0 mi WSW 16.1 mph - N/A   Clear
6:53 PM 52.0 °F - 48.0 °F 86% 29.96 in 10.0 mi WSW 15.0 mph - N/A   Mostly Cloudy
7:53 PM 51.1 °F - 48.0 °F 89% 30.00 in 9.0 mi WSW 17.3 mph - N/A   Overcast
8:53 PM 51.1 °F - 46.9 °F 86% 30.04 in 9.0 mi WSW 12.7 mph - 0.00 in   Mostly Cloudy
9:53 PM 52.0 °F - 48.0 °F 86% 30.06 in 9.0 mi WSW 12.7 mph - N/A   Overcast
10:53 PM 52.0 °F - 48.9 °F 89% 30.07 in 9.0 mi WSW 13.8 mph - N/A   Overcast
11:53 PM 52.0 °F - 48.9 °F 89% 30.09 in 8.0 mi SW 9.2 mph - N/A   Mostly Cloudy